Starlink 3761

operational
NORAD ID: 52262 Int'l Des: 2022-041 Owner: SPXS Country: US Constellation: starlink
LEOCIRCULAR

About Starlink 3761

Description loading...

Live Position

Loading 3D Globe...

Upcoming Passes

Altitude History

Altitude vs Time

uPlot chart will show altitude changes over time

Two-Line Element Set

1 52262U 22041B 25318.85163890 .00002222 00000-0 15768-3 0 9993
2 52262 53.2172 264.5986 0001246 84.8582 275.2552 15.08826794197024
Epoch: Nov 14, 2025 • Age: 6 hours

Current Status

Altitude 553.5 km
Velocity 7.58 km/s
Sub-Earth Point -39.64°S, 33.59°E
Launch Date Apr 21, 2022
Age 3.5 years
Type internet

Technical Details

Classification Payload
Mass 297.00 kg
Dry Mass 275.00 kg
Total Mass 297.00 kg
Length 0.20 m
Diameter 2.80 m
Span 9.00 m
Shape Box + pan
Manufacturer SPXS
Bus Type Starlink
Phase Status In Orbit
Owner/State SPXS/US

Large Constellations

Loading constellations...